GW6562 Weather Reports


time (UTC)temp
C
wind
direction
speed
KPH
gust
KPH
rain 1hr
cm
rain 24hr
cm
rain mn
cm
humidity
%
barometer
mb
20260510201958 8 5 14.5 22.5 0.00 0.00 0.00 72 1015.0
20260510201457 8 5 16.1 24.1 0.00 0.00 0.00 71 1015.0
20260510200458 9 36 14.5 24.1 0.00 0.00 0.00 71 1015.0
20260510200001 9 13 12.9 24.1 0.00 0.00 0.00 72 1015.1
20260510195458 9 342 19.3 24.1 0.00 0.00 0.00 72 1015.0
20260510194958 9 344 16.1 25.7 0.00 0.00 0.00 72 1014.9
20260510194458 10 14 16.1 30.6 0.00 0.00 0.00 72 1015.0
20260510193459 10 30 14.5 30.6 0.00 0.00 0.00 72 1014.7
20260510192959 10 25 24.1 30.6 0.00 0.00 0.00 72 1014.6
20260510192459 10 344 27.4 30.6 0.00 0.00 0.00 73 1014.7
20260510191458 10 17 22.5 32.2 0.00 0.00 0.00 72 1014.7
20260510190959 10 9 19.3 37.0 0.00 0.00 0.00 71 1014.6
20260510190458 10 57 11.3 37.0 0.00 0.00 0.00 71 1014.7
20260510185959 10 24 12.9 33.8 0.00 0.00 0.00 70 1014.6
20260510185459 11 355 17.7 30.6 0.00 0.00 0.00 70 1014.6
20260510184958 11 5 12.9 35.4 0.00 0.00 0.00 69 1014.6
20260510183957 11 355 20.9 29.0 0.00 0.00 0.00 70 1014.6
20260510182957 11 13 16.1 35.4 0.00 0.00 0.00 70 1014.6
20260510182457 11 37 25.7 37.0 0.00 0.00 0.00 70 1014.7
20260510181958 11 355 20.9 37.0 0.00 0.00 0.00 70 1014.7
20260510181458 11 360 30.6 37.0 0.00 0.00 0.00 69 1014.7
20260510180957 11 355 20.9 37.0 0.00 0.00 0.00 70 1014.7
20260510180458 11 349 20.9 40.2 0.00 0.00 0.00 69 1014.7
20260510180000 11 18 35.4 37.0 0.00 0.00 0.00 69 1014.6
20260510175457 12 13 25.7 32.2 0.00 0.00 0.00 69 1014.6
20260510174958 12 29 17.7 32.2 0.00 0.00 0.00 69 1014.7
20260510174458 12 11 25.7 38.6 0.00 0.00 0.00 69 1014.7
20260510173957 12 347 19.3 38.6 0.00 0.00 0.00 68 1014.7
20260510173458 12 350 32.2 37.0 0.00 0.00 0.00 68 1014.6
20260510172957 12 5 16.1 35.4 0.00 0.00 0.00 68 1014.7
20260510172457 12 345 32.2 35.4 0.00 0.00 0.00 67 1014.7
20260510171958 12 20 25.7 30.6 0.00 0.00 0.00 67 1014.6
20260510170958 12 11 24.1 27.4 0.00 0.00 0.00 68 1014.6
20260510170458 12 5 16.1 30.6 0.00 0.00 0.00 68 1014.8
20260510165500 12 34 22.5 33.8 0.00 0.00 0.00 67 1014.8
20260510164958 12 5 16.1 33.8 0.00 0.00 0.00 68 1014.8
20260510164457 12 21 25.7 33.8 0.00 0.00 0.00 68 1014.9
20260510162957 13 360 20.9 29.0 0.00 0.00 0.00 68 1015.1
20260510161457 13 17 17.7 35.4 0.00 0.00 0.00 67 1015.2
20260510160956 13 42 22.5 33.8 0.00 0.00 0.00 67 1015.2
20260510160000 13 49 14.5 33.8 0.00 0.00 0.00 67 1015.2
20260510155500 13 37 17.7 25.7 0.00 0.00 0.00 68 1015.2
20260510154958 13 46 17.7 29.0 0.00 0.00 0.00 68 1015.3
20260510154457 13 344 19.3 33.8 0.00 0.00 0.00 69 1015.3
20260510153958 13 9 22.5 40.2 0.00 0.00 0.00 68 1015.3
20260510153459 13 9 24.1 40.2 0.00 0.00 0.00 68 1015.4
20260510152957 13 11 29.0 33.8 0.00 0.00 0.00 69 1015.4
20260510152458 13 14 14.5 33.8 0.00 0.00 0.00 67 1015.5
20260510151959 13 9 19.3 30.6 0.00 0.00 0.00 67 1015.5
20260510151459 13 28 19.3 30.6 0.00 0.00 0.00 68 1015.5
20260510150959 13 11 17.7 33.8 0.00 0.00 0.00 68 1015.6
20260510150458 13 33 25.7 33.8 0.00 0.00 0.00 68 1015.5
20260510145959 13 34 25.7 33.8 0.00 0.00 0.00 69 1015.6
20260510145456 13 5 20.9 35.4 0.00 0.00 0.00 68 1015.7
20260510144957 13 19 27.4 33.8 0.00 0.00 0.00 69 1015.7
20260510144457 13 28 20.9 33.8 0.00 0.00 0.00 68 1015.7
20260510143457 13 355 12.9 32.2 0.00 0.00 0.00 67 1015.8
20260510141459 13 34 25.7 25.7 0.00 0.00 0.00 69 1016.0
20260510140957 13 29 19.3 25.7 0.00 0.00 0.00 69 1016.0
20260510140457 13 31 9.7 29.0 0.00 0.00 0.00 69 1015.9
20260510135957 13 9 19.3 24.1 0.00 0.00 0.00 69 1016.2
20260510135456 13 17 16.1 27.4 0.00 0.00 0.00 69 1016.2
20260510134957 13 41 19.3 27.4 0.00 0.00 0.00 70 1016.2
20260510134458 13 17 14.5 27.4 0.00 0.00 0.00 69 1016.2
20260510133958 13 12 16.1 27.4 0.00 0.00 0.00 70 1016.2
20260510133459 13 351 14.5 22.5 0.00 0.00 0.00 70 1016.2
20260510132958 13 9 14.5 27.4 0.00 0.00 0.00 70 1016.3
20260510131957 13 22 20.9 24.1 0.00 0.00 0.00 72 1016.5
20260510131457 13 27 17.7 25.7 0.00 0.00 0.00 71 1016.4
20260510130957 13 28 17.7 25.7 0.00 0.00 0.00 71 1016.5
20260510130457 13 30 24.1 25.7 0.00 0.00 0.00 70 1016.6
20260510125957 13 18 24.1 25.7 0.00 0.00 0.00 71 1016.5
20260510125458 12 36 9.7 29.0 0.00 0.00 0.00 71 1016.6
20260510124457 13 47 19.3 25.7 0.00 0.00 0.00 72 1016.7
20260510123457 13 14 20.9 30.6 0.00 0.00 0.00 71 1016.6
20260510121957 12 27 14.5 27.4 0.00 0.00 0.00 72 1016.8
20260510121457 12 15 12.9 24.1 0.00 0.00 0.00 72 1016.8
20260510120957 12 25 14.5 27.4 0.00 0.00 0.00 72 1016.9
20260510120457 12 24 17.7 27.4 0.00 0.00 0.00 72 1016.8
20260510115959 12 49 20.9 25.7 0.00 0.00 0.00 71 1016.8
20260510115458 12 24 8.0 25.7 0.00 0.00 0.00 71 1016.8
20260510114458 13 336 14.5 25.7 0.00 0.00 0.00 71 1016.9
20260510113958 13 57 11.3 27.4 0.00 0.00 0.00 72 1017.0
20260510113457 12 51 14.5 30.6 0.00 0.00 0.00 71 1017.1
20260510112957 12 44 20.9 33.8 0.00 0.00 0.00 72 1017.0
20260510111956 12 35 20.9 27.4 0.00 0.00 0.00 74 1017.0
20260510111457 12 22 9.7 27.4 0.00 0.00 0.00 73 1017.2
20260510110958 12 24 17.7 27.4 0.00 0.00 0.00 73 1017.3
20260510110458 12 56 22.5 24.1 0.00 0.00 0.00 74 1017.3
20260510105957 12 5 19.3 29.0 0.00 0.00 0.00 74 1017.3
20260510105456 12 54 16.1 29.0 0.00 0.00 0.00 73 1017.4
20260510104957 12 35 11.3 27.4 0.00 0.00 0.00 74 1017.4
20260510104458 12 35 25.7 27.4 0.00 0.00 0.00 73 1017.4
20260510103958 12 53 20.9 27.4 0.00 0.00 0.00 74 1017.4
20260510103457 12 24 16.1 25.7 0.00 0.00 0.00 75 1017.4
20260510102956 12 14 19.3 25.7 0.00 0.00 0.00 74 1017.5
20260510102459 12 14 20.9 25.7 0.00 0.00 0.00 74 1017.6
20260510101957 12 21 6.4 29.0 0.00 0.00 0.00 74 1017.7
20260510101457 12 57 20.9 29.0 0.00 0.00 0.00 74 1017.7
20260510100958 12 27 20.9 25.7 0.00 0.00 0.00 74 1017.7
20260510100457 12 44 11.3 27.4 0.00 0.00 0.00 74 1017.8
20260510095457 12 26 6.4 22.5 0.00 0.00 0.00 75 1017.7
20260510093957 11 24 14.5 22.5 0.00 0.00 0.00 77 1017.7
20260510093457 11 41 6.4 22.5 0.00 0.00 0.00 77 1017.8
20260510092957 11 73 11.3 25.7 0.00 0.00 0.00 77 1017.7
20260510092457 11 30 8.0 20.9 0.00 0.00 0.00 77 1017.7
20260510091956 11 88 14.5 20.9 0.00 0.00 0.00 78 1017.9
20260510090957 11 16 8.0 29.0 0.00 0.00 0.00 78 1017.7
20260510090457 10 89 12.9 29.0 0.00 0.00 0.00 78 1017.7
20260510085959 10 51 8.0 24.1 0.00 0.00 0.00 78 1017.8
20260510084959 10 32 12.9 25.7 0.00 0.00 0.00 78 1017.9
20260510084458 10 9 17.7 25.7 0.00 0.00 0.00 78 1017.9
20260510083459 10 54 19.3 27.4 0.00 0.00 0.00 78 1017.9
20260510082959 10 5 9.7 22.5 0.00 0.00 0.00 79 1017.9
20260510081959 10 35 17.7 24.1 0.00 0.00 0.00 79 1017.8
20260510081458 10 27 6.4 22.5 0.00 0.00 0.00 79 1017.8
20260510080959 10 19 12.9 25.7 0.00 0.00 0.00 79 1017.8
20260510080458 10 44 19.3 25.7 0.00 0.00 0.00 79 1017.8
20260510080001 10 59 8.0 25.7 0.00 0.00 0.00 79 1017.8
20260510075458 10 36 17.7 25.7 0.00 0.00 0.00 79 1017.8
20260510074958 10 20 16.1 25.7 0.00 0.00 0.00 79 1017.8
20260510074459 10 23 14.5 25.7 0.00 0.00 0.00 79 1017.7
20260510073959 10 61 14.5 24.1 0.00 0.00 0.00 79 1017.8
20260510073459 10 35 17.7 24.1 0.00 0.00 0.00 79 1017.7
20260510072958 11 31 16.1 25.7 0.00 0.00 0.00 79 1017.5
20260510072459 11 32 20.9 25.7 0.00 0.00 0.00 80 1017.5
20260510071958 10 20 14.5 25.7 0.00 0.00 0.00 80 1017.5
20260510070958 10 55 22.5 24.1 0.00 0.00 0.00 80 1017.6
20260510070458 10 21 12.9 24.1 0.00 0.00 0.00 80 1017.6
20260510065956 10 44 24.1 27.4 0.00 0.00 0.00 80 1017.7
20260510065457 10 41 16.1 22.5 0.00 0.00 0.00 81 1017.6
20260510064956 10 57 11.3 19.3 0.00 0.00 0.00 81 1017.5
20260510064457 10 44 11.3 20.9 0.00 0.00 0.00 81 1017.5
20260510063457 10 39 11.3 22.5 0.00 0.00 0.00 81 1017.3
20260510061957 10 28 12.9 24.1 0.00 0.00 0.00 82 1017.3
20260510061457 9 33 17.7 25.7 0.00 0.00 0.00 82 1017.3
20260510060456 10 20 12.9 19.3 0.00 0.00 0.00 82 1017.3
20260510060001 10 5 6.4 17.7 0.00 0.00 0.00 82 1017.3
20260510055459 10 55 11.3 17.7 0.00 0.00 0.00 82 1017.2
20260510054959 10 24 12.9 16.1 0.00 0.00 0.00 82 1017.3
20260510054458 10 5 8.0 17.7 0.00 0.00 0.00 82 1017.2
20260510052958 10 5 8.0 16.1 0.00 0.00 0.00 82 1017.0
20260510052458 10 27 8.0 16.1 0.00 0.00 0.00 82 1017.1
20260510051957 9 21 12.9 17.7 0.00 0.00 0.00 82 1017.2
20260510051457 9 355 14.5 19.3 0.00 0.00 0.00 82 1017.1
20260510050958 9 29 16.1 19.3 0.00 0.00 0.00 82 1017.1
20260510045959 9 346 12.9 17.7 0.00 0.00 0.00 82 1017.3
20260510045459 9 22 9.7 17.7 0.00 0.00 0.00 82 1017.2
20260510044958 9 15 8.0 19.3 0.00 0.00 0.00 81 1017.3
20260510044458 10 20 4.8 19.3 0.00 0.00 0.00 82 1017.2
20260510043958 10 350 14.5 19.3 0.00 0.00 0.00 81 1017.1
20260510043458 10 5 12.9 24.1 0.00 0.00 0.00 81 1017.1
20260510042958 10 24 6.4 24.1 0.00 0.00 0.00 81 1017.1
20260510042457 10 64 12.9 19.3 0.00 0.00 0.00 81 1017.0
20260510041959 10 51 8.0 24.1 0.00 0.00 0.00 81 1017.1
20260510040958 10 5 14.5 20.9 0.00 0.00 0.00 81 1017.1
20260510040459 10 55 16.1 24.1 0.00 0.00 0.00 81 1017.1
20260510035500 10 64 8.0 27.4 0.00 0.00 0.00 81 1017.1
20260510034958 10 63 25.7 27.4 0.00 0.00 0.00 81 1017.1
20260510034459 10 34 20.9 22.5 0.00 0.00 0.00 81 1017.3
20260510033957 10 355 9.7 30.6 0.00 0.00 0.00 81 1017.3
20260510033459 10 42 22.5 30.6 0.00 0.00 0.00 81 1017.3
20260510032959 10 42 17.7 27.4 0.00 0.00 0.00 81 1017.3
20260510032457 10 36 19.3 27.4 0.00 0.00 0.00 81 1017.3
20260510032000 10 40 22.5 30.6 0.00 0.00 0.00 81 1017.2
20260510031458 10 44 25.7 30.6 0.00 0.00 0.00 81 1017.2
20260510030958 10 72 12.9 32.2 0.00 0.00 0.00 81 1017.2
20260510030457 10 38 25.7 30.6 0.00 0.00 0.00 81 1017.2
20260510025457 11 25 20.9 24.1 0.00 0.00 0.00 81 1017.2
20260510024957 11 21 14.5 24.1 0.00 0.00 0.00 82 1017.3
20260510023958 11 19 12.9 24.1 0.00 0.00 0.00 82 1017.2
20260510022957 11 16 11.3 25.7 0.00 0.00 0.00 82 1017.3
20260510022457 11 17 14.5 25.7 0.00 0.00 0.00 83 1017.1
20260510021957 11 11 20.9 22.5 0.00 0.00 0.00 83 1017.2
20260510021457 11 40 11.3 17.7 0.00 0.00 0.00 83 1017.2
20260510020957 11 11 14.5 20.9 0.00 0.00 0.00 83 1017.2
20260510020457 11 5 16.1 24.1 0.00 0.00 0.00 83 1017.2
20260510015958 11 19 14.5 24.1 0.00 0.00 0.00 83 1017.1
20260510015457 11 360 17.7 24.1 0.00 0.00 0.00 83 1017.2
20260510014957 11 27 19.3 27.4 0.00 0.00 0.00 83 1017.3
20260510014457 11 360 8.0 24.1 0.00 0.00 0.00 84 1017.2
20260510013458 11 31 17.7 24.1 0.00 0.00 0.00 84 1017.3
20260510012458 11 13 11.3 24.1 0.00 0.00 0.00 85 1017.4
20260510011957 11 24 17.7 22.5 0.00 0.00 0.00 86 1017.4
20260510011458 11 13 16.1 17.7 0.00 0.00 0.00 86 1017.5
20260510010956 11 13 16.1 16.1 0.00 0.00 0.00 86 1017.5
20260510010457 11 24 9.7 14.5 0.00 0.00 0.00 86 1017.5
20260510010000 11 5 8.0 16.1 0.00 0.00 0.00 86 1017.4
20260510005000 11 5 9.7 16.1 0.00 0.00 0.00 86 1017.3
20260510003958 11 341 9.7 14.5 0.00 0.00 0.00 86 1017.3
20260510003457 11 13 8.0 14.5 0.00 0.00 0.00 86 1017.4
20260510003000 11 16 6.4 17.7 0.00 0.00 0.00 86 1017.4
20260510002459 11 342 12.9 20.9 0.00 0.00 0.00 86 1017.4
20260510001958 11 360 12.9 20.9 0.00 0.00 0.00 86 1017.4
20260510000959 11 12 4.8 19.3 0.00 0.00 0.00 86 1017.4
20260510000458 11 343 16.1 16.1 0.00 0.00 0.00 86 1017.5
20260510000000 11 5 8.0 17.7 0.00 0.00 0.00 86 1017.4
20260509235457 11 360 14.5 20.9 0.00 0.00 0.00 86 1017.5
20260509234459 11 348 22.5 24.1 0.00 0.00 0.00 86 1017.5
20260509233958 11 340 16.1 24.1 0.00 0.00 0.00 86 1017.5
20260509233457 11 18 20.9 25.7 0.00 0.00 0.00 85 1017.5
20260509232957 11 360 16.1 25.7 0.00 0.00 0.00 85 1017.5
20260509232458 11 16 11.3 20.9 0.00 0.00 0.00 85 1017.4
20260509231958 11 33 12.9 20.9 0.00 0.00 0.00 85 1017.4
20260509231500 11 355 16.1 22.5 0.00 0.00 0.00 85 1017.6
20260509230959 11 22 14.5 22.5 0.00 0.00 0.00 85 1017.5
20260509230500 11 33 16.1 22.5 0.00 0.00 0.00 85 1017.5
20260509230003 11 30 20.9 24.1 0.00 0.00 0.00 85 1017.5
20260509225459 11 355 6.4 25.7 0.00 0.00 0.00 85 1017.4
20260509224957 11 344 19.3 27.4 0.00 0.00 0.00 85 1017.4
20260509224459 11 11 16.1 27.4 0.00 0.00 0.00 85 1017.3
20260509223959 11 341 16.1 27.4 0.00 0.00 0.00 85 1017.4
20260509222959 11 15 14.5 25.7 0.00 0.00 0.00 85 1017.4
20260509222459 11 332 20.9 27.4 0.00 0.00 0.00 84 1017.6
20260509221959 11 24 8.0 30.6 0.00 0.00 0.00 84 1017.4
20260509221459 11 28 17.7 30.6 0.00 0.00 0.00 84 1017.4
20260509220458 11 355 20.9 27.4 0.00 0.00 0.00 84 1017.4
20260509215458 11 5 16.1 24.1 0.00 0.00 0.00 83 1017.4
20260509214957 11 9 19.3 25.7 0.00 0.00 0.00 83 1017.4
20260509214456 11 344 17.7 27.4 0.00 0.00 0.00 83 1017.3
20260509213957 11 355 17.7 27.4 0.00 0.00 0.00 83 1017.3
20260509213457 11 342 16.1 27.4 0.00 0.00 0.00 83 1017.3
20260509212957 11 360 20.9 24.1 0.00 0.00 0.00 83 1017.3
20260509212457 11 17 19.3 20.9 0.00 0.00 0.00 83 1017.3
20260509211956 11 360 12.9 25.7 0.00 0.00 0.00 83 1017.4
20260509211457 11 360 19.3 27.4 0.00 0.00 0.00 83 1017.3
20260509210957 11 28 22.5 27.4 0.00 0.00 0.00 83 1017.4
20260509210457 11 10 17.7 22.5 0.00 0.00 0.00 83 1017.4
20260509205959 11 350 12.9 25.7 0.00 0.00 0.00 83 1017.4
20260509205457 11 12 16.1 25.7 0.00 0.00 0.00 83 1017.5
20260509203458 11 351 9.7 24.1 0.00 0.00 0.00 83 1017.5
20260509202459 11 360 14.5 22.5 0.00 0.00 0.00 83 1017.5